Montreal Mirabel, Quebec

5:06 AM EDT on May 23, 2017 (GMT -0400)
Montreal Mirabel

Weather History for CYMX - March, 2013

Change the Weather History Date:

Saturday, March 2, 2013

  Actual Average Record
Temperature  
Mean Temperature 27 °F -  
Max Temperature 30 °F 26 °F 42 °F (1997)
Min Temperature 24 °F 11 °F -2 °F (2014)
Degree Days  
Heating Degree Days 38    
Moisture  
Dew Point 24 °F    
Average Humidity 83    
Maximum Humidity 93    
Minimum Humidity 69    
Precipitation  
Precipitation 0.00 in - - ()
Sea Level Pressure  
Sea Level Pressure 29.81 in    
Wind  
Wind Speed 5 mph ()    
Max Wind Speed 12 mph    
Max Gust Speed -    
Visibility 9.0 miles    
Events Snow    
Averages and records for this station are not official NWS values.
T = Trace of Precipitation, MM = Missing Value Source: Averaged Metar Reports

Daily Weather History Graph

Daily Weather History Graph

Search for Another Location

Airport or City:

Trip Planner

Search our weather history database for the weather conditions in past years. The results will help you decide how hot, cold, wet, or windy it might be!

Date:

Astronomy

Mar. 02, 2013 Rise Set
Actual Time 6:32 AM EST 5:44 PM EST
Civil Twilight 6:02 AM EST 6:14 PM EST
Nautical Twilight 5:28 AM EST 6:48 PM EST
Astronomical Twilight 4:53 AM EST 7:23 PM EST
Moon 11:40 PM EST (3/2) 8:40 AM EST (3/2)
Length of Visible Light 12h 11m
Length of Day
11h 12m
Waning Gibbous, 74% of the Moon is Illuminated
Mar 2
Waning Gibbous
Mar 4
Last Quarter
Mar 11
New
Mar 19
First Quarter
Mar 27
Full

Hourly Weather History & Observations

Time (EST) Temp. Windchill Dew Point Humidity Pressure Visibility Wind Dir Wind Speed Gust Speed Precip Events Conditions
12:00 AM 30.2 °F 25.4 °F 28.4 °F 93% 29.83 in 5.0 mi NW 4.6 mph - N/A Snow Light Snow
1:00 AM 30.2 °F 25.4 °F 28.4 °F 93% 29.82 in 10.0 mi WNW 4.6 mph - N/A Snow Light Snow
2:00 AM 30.2 °F 25.4 °F 26.6 °F 86% 29.81 in 25.0 mi West 4.6 mph - N/A Snow Light Snow
3:00 AM 30.2 °F 25.4 °F 26.6 °F 86% 29.81 in 25.0 mi WSW 4.6 mph - N/A Snow Light Snow
3:48 AM 30.2 °F 25.4 °F 26.6 °F 86% 29.81 in 25.0 mi WSW 4.6 mph - N/A   Overcast
4:00 AM 30.2 °F 24.3 °F 26.6 °F 86% 29.80 in 25.0 mi West 5.8 mph - N/A   Overcast
5:00 AM 30.2 °F 24.3 °F 26.6 °F 86% 29.80 in 25.0 mi West 5.8 mph - N/A   Overcast
6:00 AM 30.2 °F 25.4 °F 24.8 °F 80% 29.81 in 25.0 mi West 4.6 mph - N/A   Overcast
7:00 AM 30.2 °F 24.3 °F 24.8 °F 80% 29.81 in 45.0 mi NW 5.8 mph - N/A   Overcast
8:00 AM 28.4 °F 20.4 °F 23.0 °F 80% 29.83 in 45.0 mi NW 8.1 mph - N/A   Mostly Cloudy
9:00 AM 28.4 °F 19.1 °F 21.2 °F 74% 29.83 in 45.0 mi North 10.4 mph - N/A   Overcast
10:00 AM 30.2 °F 23.4 °F 21.2 °F 69% 29.83 in 45.0 mi North 6.9 mph - N/A   Mostly Cloudy
11:00 AM 30.2 °F 24.3 °F 21.2 °F 69% 29.82 in 45.0 mi West 5.8 mph - N/A   Mostly Cloudy
12:00 PM 30.2 °F 25.4 °F 23.0 °F 75% 29.81 in 45.0 mi SW 4.6 mph - N/A   Mostly Cloudy
1:00 PM 30.2 °F 21.3 °F 21.2 °F 69% 29.80 in 45.0 mi SW 10.4 mph - N/A   Overcast
2:00 PM 30.2 °F 21.3 °F 21.2 °F 69% 29.80 in 45.0 mi SW 10.4 mph - N/A   Overcast
3:00 PM 30.2 °F 24.3 °F 21.2 °F 69% 29.79 in 20.0 mi WSW 5.8 mph - N/A   Overcast
3:14 PM 30.2 °F 20.8 °F 21.2 °F 69% 29.79 in 10.0 mi WSW 11.5 mph - N/A Snow Light Snow Showers
4:00 PM 30.2 °F 25.4 °F 26.6 °F 86% 29.80 in 4.0 mi NNE 4.6 mph - N/A Snow Light Snow Showers
5:00 PM 28.4 °F 23.3 °F 26.6 °F 93% 29.81 in 4.0 mi North 4.6 mph - N/A Snow Light Snow Showers
6:00 PM 28.4 °F 23.3 °F 24.8 °F 86% 29.83 in 10.0 mi NW 4.6 mph - N/A Snow Light Snow Showers
6:43 PM 28.4 °F 23.3 °F 24.8 °F 86% 29.83 in 3.0 mi NW 4.6 mph - N/A Snow Light Snow Showers
7:00 PM 28.4 °F 24.6 °F 24.8 °F 86% 29.83 in 3.0 mi NW 3.5 mph - N/A Snow Light Snow Showers
7:42 PM 26.6 °F 22.6 °F 24.8 °F 93% 29.83 in 10.0 mi WSW 3.5 mph - N/A Snow Light Snow Showers
7:52 PM 26.6 °F 22.6 °F 24.8 °F 93% 29.82 in 20.0 mi WSW 3.5 mph - N/A   Overcast
8:00 PM 26.6 °F 21.2 °F 24.8 °F 93% 29.82 in 20.0 mi WSW 4.6 mph - N/A   Overcast
8:49 PM 26.6 °F 20.0 °F 23.0 °F 86% 29.82 in 15.0 mi West 5.8 mph - N/A Snow Light Snow Showers
9:00 PM 26.6 °F 21.2 °F 23.0 °F 86% 29.83 in 6.0 mi West 4.6 mph - N/A Snow Light Snow Showers
10:00 PM 24.8 °F 19.1 °F 23.0 °F 93% 29.81 in 1.5 mi WSW 4.6 mph - N/A Snow Light Snow
11:00 PM 24.8 °F 19.1 °F 23.0 °F 93% 29.81 in 2.0 mi WSW 4.6 mph - N/A Snow Light Snow